User: anonymous   Login
Location: Fort Wayne
(41.1310°N, 85.1290°W)
Time: 17:26:32
(UTC-04:00)
Language:

OPAL - Orbit

View from above orbital plane
View from above orbital plane
View from above satellite
View from above satellite

Ground track
Ground track

The orbit data is extracted from the following two-line orbital elements,

1 26063U 00004C   16236.90776230 +.00000003 +00000-0 +20993-4 0  9993
2 26063 100.1915 179.6506 0037227 066.9323 293.5776 14.36628207868493
Epoch (UTC): 23 August 2016 21:47:10
Eccentricity: 0.0037227
inclination: 100.1915°
perigee height: 743 km
apogee height: 796 km
right ascension of ascending node: 179.6506°
argument of perigee: 66.9323°
revolutions per day: 14.36628207
mean anomaly at epoch: 293.5776°
orbit number at epoch: 86849

The dashed part of the orbit path shows where the satellite is in the earth's shadow,  

DLR